006  
ASUS44 KHUN 240310  
RWRHUN  
 
WEATHER ROUNDUP FOR THE TENNESSEE VALLEY  
NATIONAL WEATHER SERVICE HUNTSVILLE AL  
900 PM CST THU NOV 23 2017  
 
ALZ001>004-240400-  
NORTHWEST ALABAMA  
 
CITY SKY/WX TMP DP RH WIND PRES REMARKS
 
COURTLAND HCN N/A 36 N/A N/A CALM N/A  
RUSSELLVILLE N/A 30 N/A N/A MISG N/A  
SHOALS AIRPORT CLEAR 36 27 69 NW3 30.06R  
SHOALS TVA RES N/A 36 N/A N/A MISG N/A  

 
 
ALZ005>007-016-240400-  
NORTH CENTRAL ALABAMA  
 
CITY SKY/WX TMP DP RH WIND PRES REMARKS
 
CULLMAN AG STN N/A 36 N/A N/A CALM N/A  
DECATUR AP CLEAR 35 33 92 CALM 30.05S  
HUNTSVILLE AP CLEAR 39 33 79 CALM 30.04S  
MERIDIANVILLE CLEAR 34 32 93 CALM 30.04F  
REDSTONE ARSN CLEAR 41 31 66 N3 30.03S  
VINEMONT AP FAIR 35 31 87 CALM 30.05S  

 
 
ALZ008>010-240400-  
NORTHEAST ALABAMA  
 
CITY SKY/WX TMP DP RH WIND PRES REMARKS
 
ALBERTVILLE PTCLDY 41 41 100 CALM 30.02S  
FORT PAYNE CLEAR 36 32 87 CALM 30.03S  
SCOTTSBORO AP CLEAR 37 37 100 CALM 30.04S  
SCOTTSBORO HCN N/A 36 N/A N/A MISG N/A  
VALLEY HEAD N/A 36 N/A N/A MISG N/A  

 
 
TNZ076-096-097-240400-  
SOUTHEASTERN MIDDLE TENNESSEE  
 
CITY SKY/WX TMP DP RH WIND PRES REMARKS
 
TULLAHOMA CLEAR 32 27 80 CALM 30.03S  
WINCHESTER CLEAR 30 28 93 CALM 30.04S  

 
   
..SURROUNDING SITES
 
 
 
CITY SKY/WX TMP DP RH WIND PRES REMARKS
 
ATLANTA PTCLDY 50 40 68 E3 30.02R  
ANNISTON CLEAR 40 36 86 CALM 30.03S  
BIRMINGHAM CLEAR 41 37 86 CALM 30.06R  
CHATTANOOGA CLEAR 41 35 79 CALM 30.04S  
CORINTH FAIR 36 28 75 SE3 30.05F  
DALTON CLEAR 36 36 100 CALM 30.05S  
GADSDEN CLEAR 36 35 96 CALM 30.04R  
GOLDEN TRNGL CLEAR 39 23 52 CALM 30.06S  
HALEYVILLE FAIR 33 28 81 CALM 30.06S  
JACKSON TN CLEAR 33 27 78 SW3 30.06S  
MEMPHIS CLEAR 38 29 70 S5 30.05F WCI 34  
NASHVILLE CLEAR 37 28 70 S3 30.04S  
OXFORD MS FAIR 34 27 75 CALM 30.08S  
ROME CLEAR 39 37 92 CALM 30.03R  
SAVANNAH CLEAR 32 28 86 CALM 30.05F  
SELMER CLEAR 36 23 60 CALM 30.04F  
TUPELO CLEAR 35 27 72 CALM 30.07R  
TUSCALOOSA CLEAR 39 35 86 CALM 30.05S  

 
   
..GULF COAST WEATHER
 
 
 
CITY SKY/WX TMP DP RH WIND PRES REMARKS
 
GULFPORT CLEAR 44 37 76 CALM 30.04R  
PASCAGOULA CLEAR 37 33 85 CALM 30.04R  
MOBILE CLEAR 45 31 58 N8 30.04R  
GULF SHORES CLEAR 50 34 55 N10 30.01S  
PENSACOLA CLEAR 52 33 48 N8 30.00R  
DESTIN MOCLDY 61 38 42 N10 29.99R  
PANAMA CITY CLEAR 60 57 89 E3 29.97R  
APPALACHICOLA CLEAR 58 58 100 NE6 29.95R  

 
 
 
 
CLICK HERE TO GO TO PREVIOUS BULLETINS.

The Nexlab AL Page
The Nexlab TN Page Main Text Page